map of TEE home
TEE - Airport
Location
City:  Tbessa, Tébessa, Algeria
Name:Cheikh Larbi Tébessi
ICAO:DABS
IATA:TEE

Details
Type:Airport (Aerodrome, Airfield)
Latitude:35°25'57"N (35.432500)
Longitude:8°07'32"E (8.125556)
Elevation:2661 ft (811 m)
Variation:1.94°E (WMM2015 magnetic declination)
0.10° annual change
Runways:2
Longest:9843 × 148 ft (3000 × 45 m)

Time
Time Zone:UTC+1
Local Time:

Weather
METAR:DABS 201800Z 04014KT 9999 FEW040 SCT233 31/13 Q1020
TAF:DABS 201700Z 2018/2118 04012KT 9999 FEW040
TEMPO 2018/2019 FEW026CB
BECMG 2020/2022 VRB02KT
BECMG 2110/2112 36014KT

Related Locations
Nearby:
Farthest:GIS: 11838 mi / 19052 km
Gisborne, GIS, NZ

Find:

   beyond  
but within

Other Information
Maps:
NOTAMs:
Links:
Sources:

  
flag of Algeria   

Sectional Chart

Flight Planning
at skyvector.com

Satellite Image

Google Maps Satellite view

 

Copyright © 2004-2017 Karl L. Swartz. All rights reserved.
The Great Circle Mapper name and logo are trademarks of the Great Circle Mapper.
All other trademarks mentioned herein belong to their respective owners.
Please see credits for attibutions and further copyright information.

  Follow gcmap on Facebook Follow gcmap on Twitter Follow gcmap on Google+ GCmap on LinkedIn

hCard Microformat

Geo Microformat